Stations météo

réclame
Mon MeteoGroup
Lossiemouth, Grande-Bretagne (3068): Température de l'air & dewpoint: 18.10.2018 06:00:00 - 24.10.2018 06:00:00 (BST)Lossiemouth, Grande-Bretagne (3068): Vitesse du vent & gusts: 18.10.2018 06:00:00 - 24.10.2018 06:00:00 (BST)Lossiemouth, Grande-Bretagne (3068): Direction du vent: 18.10.2018 06:00:00 - 24.10.2018 06:00:00 (BST)Lossiemouth, Grande-Bretagne (3068): reduced air pressure: 18.10.2018 06:00:00 - 24.10.2018 06:00:00 (BST)Lossiemouth, Grande-Bretagne (3068): visibility: 18.10.2018 06:00:00 - 24.10.2018 06:00:00 (BST)Lossiemouth, Grande-Bretagne (3068): Quantités de précipitations: 18.10.2018 06:00:00 - 24.10.2018 06:00:00 (BST)
Date & Time tt [°C] td [°C] ff [km/h] ff [knt] fx [km/h] fx [knt] dd ppp [hPa] vv [km] rr [mm]
24.10.2018 06:00:00 13,0 10,0 41 22 - - W - 10 0,0
24.10.2018 05:00:00 12,6 9,5 39 21 54 29 W 1022,4 10 0,0
24.10.2018 04:00:00 12,5 9,6 34 18 48 26 WSW 1022,2 10 0,0
24.10.2018 03:00:00 12,7 9,8 34 18 48 26 W 1022,0 10 0,0
24.10.2018 02:00:00 12,8 10,0 35 19 54 29 W 1021,9 10 0,0
24.10.2018 01:00:00 13,0 10,1 34 18 57 31 WNW 1021,7 10 0,0
24.10.2018 00:00:00 13,1 10,3 24 13 - - W 1021,7 10 0,0
23.10.2018 23:00:00 13,0 10,6 31 17 55 30 W 1021,4 10 0,0
23.10.2018 22:00:00 13,3 10,6 41 22 55 30 W 1020,3 30 0,0
23.10.2018 21:00:00 13,9 10,6 39 21 59 32 W 1020,0 10 0,0
23.10.2018 20:00:00 13,8 10,8 44 24 68 37 W 1019,3 10 0,0
23.10.2018 19:00:00 13,7 10,8 44 24 65 35 W 1018,8 10 0,0
23.10.2018 18:00:00 13,7 10,5 44 24 68 37 W 1018,2 10 0,0
23.10.2018 17:00:00 13,8 9,9 50 27 76 41 W 1018,1 10 0,0
23.10.2018 16:00:00 13,8 9,8 50 27 68 37 W 1018,4 10 0,0
23.10.2018 15:00:00 13,8 10,0 44 24 67 36 W 1018,4 10 0,0
23.10.2018 14:00:00 13,4 10,0 42 23 61 33 W 1018,6 10 0,0
23.10.2018 13:00:00 13,3 10,3 34 18 50 27 W 1019,4 10 0,0
23.10.2018 12:00:00 13,3 9,8 34 18 65 35 W 1019,4 10 0,0
23.10.2018 11:00:00 13,2 9,6 44 24 59 32 W 1018,7 10 0,0
23.10.2018 10:00:00 12,6 9,5 41 22 61 33 W 1018,1 10 0,0
23.10.2018 09:00:00 12,6 9,0 41 22 63 34 W 1017,8 10 0,0
23.10.2018 08:00:00 12,3 8,4 39 21 68 37 W 1017,2 10 0,0
23.10.2018 07:00:00 11,9 8,3 46 25 63 34 W 1017,4 10 0,0
23.10.2018 06:00:00 11,8 8,2 48 26 65 35 W 1017,5 35 0,0
23.10.2018 05:00:00 11,6 8,6 42 23 65 35 W 1017,9 10 0,0
23.10.2018 04:00:00 11,5 9,2 48 26 67 36 W 1017,6 10 0,0
23.10.2018 03:00:00 12,7 9,0 46 25 76 41 W 1017,6 10 0,0
23.10.2018 02:00:00 12,4 9,3 50 27 74 40 WSW 1017,3 10 0,0
23.10.2018 01:00:00 12,6 9,1 48 26 72 39 W 1018,1 10 0,0
23.10.2018 00:00:00 12,4 8,7 50 27 78 42 WSW 1018,6 10 0,0
22.10.2018 23:00:00 12,5 8,2 55 30 78 42 W 1019,0 10 0,0
22.10.2018 22:00:00 12,2 8,0 48 26 78 42 W 1019,9 10 0,0
22.10.2018 21:00:00 12,0 7,2 44 24 72 39 W 1020,5 10 0,0
22.10.2018 20:00:00 11,6 6,2 41 22 70 38 WSW 1021,2 10 0,0
22.10.2018 19:00:00 11,5 5,5 44 24 74 40 WSW 1021,6 10 0,0
22.10.2018 18:00:00 11,7 5,3 48 26 74 40 W 1022,4 10 0,0
22.10.2018 17:00:00 11,8 5,1 50 27 80 43 W 1022,9 25 0,0
22.10.2018 16:00:00 12,4 5,1 59 32 89 48 W 1022,7 10 0,0
22.10.2018 15:00:00 12,1 6,8 50 27 67 36 WSW 1024,1 40 0,0
22.10.2018 14:00:00 11,9 6,2 44 24 70 38 WSW 1025,4 10 0,0
22.10.2018 13:00:00 11,1 6,5 24 13 50 27 SW 1026,9 10 0,0
22.10.2018 12:00:00 10,7 5,1 31 17 48 26 WSW 1028,4 10 0,0
22.10.2018 11:00:00 10,3 4,7 26 14 48 26 SW 1028,8 30 0,0
22.10.2018 10:00:00 9,3 4,6 31 17 46 25 WSW 1029,3 10 0,0
22.10.2018 09:00:00 7,8 3,8 31 17 - - WSW 1029,7 30 0,0
22.10.2018 08:00:00 6,9 3,6 29 16 - - W 1029,4 10 0,0
22.10.2018 07:00:00 6,9 4,2 21 11 - - SW 1029,8 10 0,0
22.10.2018 06:00:00 7,7 4,5 21 11 - - WSW 1029,5 10 0,0
22.10.2018 05:00:00 7,5 4,2 28 15 - - W 1029,1 10 0,2
22.10.2018 04:00:00 5,8 4,0 21 11 61 33 W 1028,7 10 0,6
22.10.2018 03:00:00 7,7 3,3 41 22 57 31 W 1027,6 10 0,0
22.10.2018 02:00:00 7,4 3,1 28 15 48 26 W 1027,2 10 0,0
22.10.2018 01:00:00 7,0 3,2 28 15 50 27 WSW 1027,0 10 0,2
22.10.2018 00:00:00 6,9 2,8 29 16 - - W 1026,8 9 0,2
21.10.2018 23:00:00 6,5 1,2 21 11 48 26 WSW 1025,8 10 0,0
21.10.2018 22:00:00 7,9 2,5 31 17 48 26 W 1025,4 10 0,0
21.10.2018 21:00:00 8,4 3,9 29 16 55 30 W 1025,0 10 0,0
21.10.2018 20:00:00 8,8 4,1 26 14 52 28 W 1024,2 30 0,0
21.10.2018 19:00:00 8,5 3,1 39 21 57 31 W 1023,3 10 0,0
21.10.2018 18:00:00 8,9 3,6 34 18 54 29 W 1022,4 10 0,0
21.10.2018 17:00:00 10,1 4,0 35 19 52 28 W 1021,5 10 0,0
21.10.2018 16:00:00 10,6 7,0 31 17 54 29 W 1021,2 50 0,0
21.10.2018 15:00:00 10,6 7,1 31 17 50 27 WNW 1020,6 10 0,2
21.10.2018 14:00:00 11,7 7,8 34 18 48 26 WSW 1019,7 10 0,0
21.10.2018 13:00:00 10,5 7,4 18 10 - - W 1019,5 10 0,0
21.10.2018 12:00:00 9,9 8,0 15 8 - - WSW 1019,0 10 0,0
21.10.2018 11:00:00 10,1 8,5 22 12 - - SW 1018,9 10 0,0
21.10.2018 10:00:00 10,1 9,2 21 11 - - WSW 1019,6 10 0,0
21.10.2018 09:00:00 9,4 8,9 9 5 - - WSW 1019,5 10 1,0
21.10.2018 08:00:00 9,7 9,2 16 9 - - NW 1018,5 8 0,0
21.10.2018 07:00:00 10,2 9,5 26 14 - - NW 1018,1 3,4 1,6
21.10.2018 06:00:00 11,4 11,0 16 9 - - NW 1017,3 4,5 1,2
21.10.2018 05:00:00 11,9 11,4 26 14 - - NW 1017,3 3,0 0,2
21.10.2018 04:00:00 12,9 11,2 4 2 - - NW 1016,8 10 0,0
21.10.2018 03:00:00 14,9 12,1 15 8 - - SW 1016,9 10 0,0
21.10.2018 02:00:00 14,4 11,9 11 6 - - SW 1017,5 10 0,0
21.10.2018 01:00:00 15,5 12,5 24 13 - - SSW 1017,8 10 0,0
21.10.2018 00:00:00 15,4 12,5 15 8 - - SW 1018,5 10 0,0
20.10.2018 23:00:00 15,6 12,2 22 12 - - SW 1018,9 40 0,0
20.10.2018 22:00:00 16,3 12,5 26 14 - - SW 1019,1 10 0,0
20.10.2018 21:00:00 16,5 12,4 18 10 - - SW 1019,8 10 0,0
20.10.2018 20:00:00 16,4 12,4 22 12 - - WSW 1019,8 10 0,0
20.10.2018 19:00:00 16,8 12,2 26 14 - - SW 1019,2 10 0,0
20.10.2018 18:00:00 16,8 12,0 24 13 - - WSW 1019,0 10 0,0
20.10.2018 17:00:00 17,5 12,0 39 21 50 27 WSW 1018,9 10 0,0
20.10.2018 16:00:00 17,2 11,8 37 20 52 28 WSW 1018,6 70 0,0
20.10.2018 15:00:00 18,5 12,5 26 14 - - WSW 1019,0 10 0,0
20.10.2018 14:00:00 18,8 12,3 24 13 50 27 WSW 1019,6 10 0,0
20.10.2018 13:00:00 17,9 11,8 39 21 54 29 WSW 1019,3 10 0,0
20.10.2018 12:00:00 16,9 11,2 31 17 - - WSW 1019,7 10 0,0
20.10.2018 11:00:00 15,9 11,2 31 17 - - WSW 1019,7 10 -
20.10.2018 10:00:00 13,5 11,1 15 8 - - SW 1019,5 10 0,0
20.10.2018 09:00:00 10,4 8,5 9 5 - - SSE 1019,2 50 0,0
20.10.2018 08:00:00 8,9 7,1 11 6 - - SSE 1019,4 10 0,0
20.10.2018 07:00:00 8,2 6,3 13 7 - - SSE 1020,2 10 0,0
20.10.2018 06:00:00 7,2 4,5 11 6 - - E 1021,0 10 0,0
20.10.2018 05:00:00 6,2 3,6 8 4 - - E 1021,8 10 0,0
20.10.2018 04:00:00 6,3 3,5 5 3 - - SE 1022,0 10 0,0
20.10.2018 03:00:00 5,6 3,8 9 5 - - SSE 1022,7 10 0,0
20.10.2018 02:00:00 6,0 4,0 5 3 - - S 1023,7 10 0,0
20.10.2018 01:00:00 5,7 2,5 9 5 - - SSE 1023,2 10 0,0
20.10.2018 00:00:00 7,1 4,5 15 8 - - SW 1023,8 10 0,0
19.10.2018 23:00:00 6,9 5,2 9 5 - - SW 1023,4 30 0,0
19.10.2018 22:00:00 7,2 5,1 5 3 - - SSW 1023,4 10 0,0
19.10.2018 21:00:00 7,4 5,3 5 3 - - WSW 1023,0 10 0,0
19.10.2018 20:00:00 8,6 5,1 8 4 - - SW 1022,3 10 0,0
19.10.2018 19:00:00 9,1 5,8 9 5 - - W 1022,1 10 0,0
19.10.2018 18:00:00 9,8 6,5 13 7 - - WSW 1021,1 10 0,0
19.10.2018 17:00:00 11,2 7,2 26 14 - - WNW 1020,3 10 0,0
19.10.2018 16:00:00 12,8 7,0 24 13 - - W 1019,4 10 0,0
19.10.2018 15:00:00 12,7 8,3 15 8 - - W 1018,9 10 0,0
19.10.2018 14:00:00 10,8 9,7 24 13 - - W 1018,3 10 0,8
19.10.2018 13:00:00 11,5 8,7 16 9 - - WSW 1017,2 10 0,0
19.10.2018 12:00:00 11,7 8,0 16 9 - - SW 1016,6 10 0,0
19.10.2018 11:00:00 9,5 7,8 11 6 - - SSW 1016,3 10 0,8
19.10.2018 10:00:00 10,4 6,3 21 11 - - SW 1016,4 10 0,0
19.10.2018 09:00:00 10,0 4,2 28 15 - - SSW 1016,0 10 0,0
19.10.2018 08:00:00 9,6 4,1 18 10 - - SSW 1016,8 10 0,0
19.10.2018 07:00:00 9,1 3,9 16 9 - - S 1017,0 10 0,0
19.10.2018 06:00:00 9,0 3,6 11 6 - - SSE 1017,4 10 0,0
19.10.2018 05:00:00 8,9 3,4 18 10 - - SSW 1018,3 35 0,0
19.10.2018 04:00:00 9,2 3,6 21 11 - - SSW 1018,9 10 0,0
19.10.2018 03:00:00 6,7 3,9 13 7 - - SSE 1020,0 10 0,0
19.10.2018 02:00:00 7,0 3,7 9 5 - - S 1020,7 10 0,0
19.10.2018 01:00:00 7,0 3,9 8 4 - - SSE 1021,4 10 0,0
19.10.2018 00:00:00 7,3 4,2 13 7 - - S 1022,4 10 0,0
18.10.2018 23:00:00 7,6 4,2 15 8 - - SE 1023,1 10 0,0
18.10.2018 22:00:00 7,8 4,2 5 3 - - S 1023,7 10 0,0
18.10.2018 21:00:00 6,3 3,4 8 4 - - S 1024,1 10 0,0
18.10.2018 20:00:00 8,0 4,5 9 5 - - SSW 1024,2 10 0,0
18.10.2018 19:00:00 8,1 4,4 11 6 - - S 1024,6 10 0,0
18.10.2018 18:00:00 9,1 4,6 9 5 - - S 1024,9 10 0,0
18.10.2018 17:00:00 10,3 5,0 8 4 - - S 1025,2 10 0,0
18.10.2018 16:00:00 11,2 5,5 8 4 - - SSW 1025,1 10 0,0
18.10.2018 15:00:00 11,5 5,5 9 5 - - SSW 1025,9 30 0,0
18.10.2018 14:00:00 11,4 5,4 13 7 - - SW 1026,4 10 0,0
18.10.2018 13:00:00 11,2 5,6 15 8 - - SW 1026,6 40 0,0
18.10.2018 12:00:00 11,0 5,1 15 8 - - SW 1026,7 10 0,0
18.10.2018 11:00:00 11,4 4,8 16 9 - - WSW 1027,1 10 0,0
18.10.2018 10:00:00 9,3 4,3 11 6 - - SSW 1027,0 10 0,0
18.10.2018 09:00:00 7,5 4,0 16 9 - - SW 1026,7 10 0,0
18.10.2018 08:00:00 6,0 3,3 16 9 - - SW 1026,6 10 0,0
18.10.2018 07:00:00 4,2 2,3 9 5 - - SSW 1026,3 10 0,0
18.10.2018 06:00:00 6,0 2,9 15 8 - - WSW 1026,0 10 0,0

tt = Température de l'air
td = dewpoint
ff = Vitesse du vent
fx = gusts
dd = Direction du vent
ppp = reduced air pressure
vv = visibility
rr = Quantités de précipitations

stations d'obs. à proximité